Regional Weather Roundup
Issued by NWS

Home | Current Version | Previous Version | Text Only | Print | Product List | Glossary Off
Versions: 1 2 3 4 5 6 7 8 9 10 11 12 13 14 15 16 17 18 19 20 21 22 23 24 25 26 27 28 29 30 31 32 33 34 35 36 37 38 39 40 41 42 43 44 45 46 47 48 49 50

000
ASUS43 KDMX 270606
RWRIA

WEATHER ROUNDUP FOR IOWA
NATIONAL WEATHER SERVICE DES MOINES IA
100 AM CDT MON MAR 27 2017

NOTE: "FAIR" INDICATES FEW OR NO CLOUDS BELOW 12,000 FEET WITH NO
SIGNIFICANT WEATHER AND/OR OBSTRUCTIONS TO VISIBILITY.

* - THESE STATIONS ARE NOT NWS STATIONS...THUS NOT UNDER NWS
QUALITY CONTROL.  THEY ALSO DO NOT REPORT WEATHER SUCH
AS PRECIPITATION OR FOG.

IAZ001>003-012>014-020>022-031>034-043>046-270700-
   NORTHWEST IOWA

CITY           SKY/WX    TMP DP  RH WIND       PRES   REMARKS
CARROLL *      CLOUDY    43  43 100 N5        29.94S
CHEROKEE *     CLOUDY    42  40  93 N3        29.94S
LE MARS *      CLOUDY    43  39  87 NE5       29.96S
ORANGE CITY *  CLOUDY    41  39  93 CALM      29.94F
SHELDON *      CLOUDY    39  39 100 N5        29.92F
SIOUX CITY     CLOUDY    45  40  82 N3        29.95F
6HR MIN TEMP:  44; 6HR MAX TEMP:  48;

STORM LAKE *   CLOUDY    39  37  93 N5        29.93F
$$

IAZ055>058-069>071-079>083-090>094-270700-
   SOUTHWEST IOWA

CITY           SKY/WX    TMP DP  RH WIND       PRES   REMARKS
ATLANTIC *     CLOUDY    45  43  93 CALM      29.93F
AUDUBON *      CLOUDY    45  41  87 N5        29.93F FOG
CLARINDA *     CLOUDY    46  45  93 N7        29.94F
COUNCIL BLFS * CLOUDY    45  45 100 NE5       29.93S
CRESTON *      CLOUDY    45  45 100 N7        29.93F FOG
HARLAN  *      CLOUDY    45  45 100 CALM      29.96F
RED OAK *      CLOUDY    45  43  93 NE3       29.92F
SHENANDOAH *   CLOUDY    46  45  93 NE6       29.92F
$$

IAZ047>049-059>061-072>074-084-270700-
   CENTRAL IOWA

CITY           SKY/WX    TMP DP  RH WIND       PRES   REMARKS
ANKENY *       CLOUDY    45  43  93 N8        29.93F
BOONE *        CLOUDY    43  43 100 N7        29.92F
CHARITON *     CLOUDY    45  45 100 N7        29.91F FOG
DES MOINES     CLOUDY    46  44  93 CALM      29.93S
6HR MIN TEMP:  46; 6HR MAX TEMP:  48; 6HR PCP: TRACE;

GRINNELL*      CLOUDY    44  43  97 CALM      29.93F FOG
NEWTON *       CLOUDY    45  43  93 NW5       29.91F FOG
PELLA *        CLOUDY    45  44  97 CALM      29.93F FOG
PERRY *        CLOUDY    44  42  95 N7        29.93F
$$

IAZ004>006-015-016-023>025-035-036-270700-
   NORTH CENTRAL IOWA

CITY           SKY/WX    TMP DP  RH WIND       PRES   REMARKS
ALGONA *       CLOUDY    41  41 100 N6        29.92F
ESTHERVILLE    CLOUDY    38  38 100 W6        29.93S WCI  33
6HR MIN TEMP:  37; 6HR MAX TEMP:  41;

FORT DODGE *   CLOUDY    39  36  87 CALM      29.94S
FOREST CITY *  CLOUDY    39  39 100 NW3       29.92F FOG
WEBSTER CITY * CLOUDY    41  39  93 NW6       29.91F
IOWA FALLS *   CLOUDY    43  41  95 N7        29.93F FOG
$$

IAZ007>011-017>019-026>030-037>042-050>054-066-270700-
   NORTHEAST IOWA

CITY           SKY/WX    TMP DP  RH WIND       PRES   REMARKS
CHARLES CITY * FOG       41  41 100 NW6       29.92F VSB 3/4
CLINTON *      CLOUDY    47  46  97 W8        29.92S
DECORAH *      CLOUDY    39  39 100 CALM      29.90F
MONTICELLO *   CLOUDY    45  45 100 CALM      29.91S
OELWEIN *      CLOUDY    41  41 100 NW5       29.92S FOG
WATERLOO       CLOUDY    43  40  89 NW7       29.92S
6HR MIN TEMP:  43; 6HR MAX TEMP:  46;

$$

IAZ064-065-067-068-078-270700-
   EAST CENTRAL IOWA

CITY           SKY/WX    TMP DP  RH WIND       PRES   REMARKS
DAVENPORT      CLOUDY    47  45  93 W8        29.93R FOG
6HR MIN TEMP:  47; 6HR MAX TEMP:  50;

IOWA CITY      CLOUDY    47  45  93 W6        29.94R FOG
6HR MIN TEMP:  47; 6HR MAX TEMP:  50;

MUSCATINE *    CLOUDY    48  46  93 W8        29.94R FOG
QUAD CITIES    CLOUDY    49  45  86 W7        29.93R
6HR MIN TEMP:  49; 6HR MAX TEMP:  51;

$$

IAZ062-063-075>077-085>089-095>099-270700-
   SOUTHEAST IOWA

CITY           SKY/WX    TMP DP  RH WIND       PRES   REMARKS
BURLINGTON     CLOUDY    47  47 100 CALM      29.94R FOG
6HR MIN TEMP:  47; 6HR MAX TEMP:  49;

FAIRFIELD *    CLOUDY    46  46 100 CALM      29.93F FOG
KEOKUK *       CLOUDY    48  46  93 SW5       29.94S
OSKALOOSA *    CLOUDY    44  43  98 CALM      29.92F FOG
OTTUMWA        CLOUDY    46  46 100 CALM      29.92F
6HR MIN TEMP:  46; 6HR MAX TEMP:  48;

WASHINGTON *   CLOUDY    46  46 100 W5        29.94F FOG
$$

ABBREVIATIONS USED IN REMARKS
   TC - TEMPERATURES IN CELSIUS
  WCI - WIND CHILL INDEX
   HX - HEAT INDEX
  VSB - VISIBILITY
$$





USA.gov is the U.S. government's official web portal to all federal, state and local government web resources and services.